When you browse on this site, cookies collect data to enhance your experience and personalize the content and advertising you see.
Visit our Privacy Policy to learn more. By continuing to use the site, you agree to this use of cookies and data.
  • In Latvia
  • List of Countries
  • For 7 days
  • Water Temperature
  • Weather Map
  • Weather Widgets
  • user-avatar
    Login

    Hourly Weather Ballycastle

    Today, 23 January, Thursday

    Time Temperature Precipitation Wind Pressure Humidity
    00:00 +7°C° 0 mm 3 mps 773 mmHg 94%
    01:00 +7°C° 0 mm 3 mps 772 mmHg 94%
    02:00 +7°C° 0 mm 3 mps 772 mmHg 93%
    03:00 +7°C° 0 mm 3 mps 771 mmHg 92%
    04:00 +5°C° 0 mm 3 mps 771 mmHg 93%
    05:00 +5°C° 0 mm 3 mps 770 mmHg 93%
    06:00 +4°C° 0 mm 3 mps 770 mmHg 93%
    07:00 +5°C° 0 mm 4 mps 770 mmHg 93%
    08:00 +5°C° 0 mm 4 mps 770 mmHg 93%
    09:00 +5°C° 0 mm 4 mps 769 mmHg 93%
    10:00 +6°C° 0 mm 4 mps 769 mmHg 92%
    11:00 +6°C° 0 mm 5 mps 769 mmHg 91%
    12:00 +7°C° 0 mm 5 mps 769 mmHg 90%
    13:00 +7°C° 0 mm 5 mps 768 mmHg 89%
    14:00 +7°C° 0 mm 5 mps 768 mmHg 88%
    15:00 +7°C° 0 mm 5 mps 767 mmHg 88%
    16:00 +7°C° 0 mm 5 mps 767 mmHg 89%
    17:00 +6°C° 0 mm 5 mps 767 mmHg 90%
    18:00 +6°C° 0 mm 5 mps 766 mmHg 92%
    19:00 +6°C° 0 mm 5 mps 766 mmHg 92%
    20:00 +6°C° 0 mm 5 mps 766 mmHg 92%
    21:00 +6°C° 0 mm 5 mps 766 mmHg 92%
    22:00 +6°C° 0 mm 5 mps 765 mmHg 92%
    23:00 +6°C° 0 mm 5 mps 765 mmHg 92%

    Tomorrow, 24 January, Friday

    Time Temperature Precipitation Wind Pressure Humidity
    00:00 +6°C° 0 mm 5 mps 765 mmHg 92%
    01:00 +6°C° 0 mm 5 mps 765 mmHg 93%
    02:00 +6°C° 0 mm 5 mps 764 mmHg 93%
    03:00 +6°C° 0 mm 4 mps 764 mmHg 94%
    04:00 +6°C° 0 mm 4 mps 763 mmHg 94%
    05:00 +6°C° 0 mm 4 mps 763 mmHg 94%
    06:00 +6°C° 0 mm 4 mps 763 mmHg 94%
    07:00 +6°C° 0.1 mm 4 mps 763 mmHg 94%
    08:00 +6°C° 0.1 mm 4 mps 763 mmHg 95%
    09:00 +6°C° 0.1 mm 4 mps 763 mmHg 95%
    10:00 +6°C° 0 mm 4 mps 763 mmHg 94%
    11:00 +7°C° 0 mm 3 mps 762 mmHg 94%
    12:00 +8°C° 0 mm 3 mps 762 mmHg 93%
    13:00 +8°C° 0 mm 3 mps 762 mmHg 93%
    14:00 +8°C° 0 mm 3 mps 761 mmHg 92%
    15:00 +8°C° 0 mm 3 mps 761 mmHg 92%
    16:00 +8°C° 0 mm 3 mps 761 mmHg 93%
    17:00 +7°C° 0 mm 3 mps 760 mmHg 94%
    18:00 +6°C° 0 mm 2 mps 760 mmHg 95%
    19:00 +5°C° 0 mm 3 mps 760 mmHg 95%
    20:00 +5°C° 0 mm 3 mps 760 mmHg 95%
    21:00 +5°C° 0 mm 4 mps 760 mmHg 95%
    22:00 +5°C° 0 mm 4 mps 759 mmHg 94%
    23:00 +5°C° 0 mm 4 mps 759 mmHg 93%

    Day after tomorrow, 25 January, Saturday

    Time Temperature Precipitation Wind Pressure Humidity
    00:00 +6°C° 0 mm 5 mps 758 mmHg 91%
    01:00 +6°C° 0 mm 5 mps 758 mmHg 91%
    02:00 +6°C° 0 mm 5 mps 757 mmHg 91%
    03:00 +5°C° 0 mm 5 mps 756 mmHg 91%
    04:00 +6°C° 0 mm 5 mps 756 mmHg 90%
    05:00 +6°C° 0 mm 5 mps 755 mmHg 88%
    06:00 +6°C° 0 mm 5 mps 755 mmHg 87%
    07:00 +6°C° 0 mm 5 mps 755 mmHg 87%
    08:00 +5°C° 0 mm 6 mps 754 mmHg 87%
    09:00 +5°C° 0 mm 6 mps 754 mmHg 86%
    10:00 +5°C° 0 mm 6 mps 753 mmHg 85%
    11:00 +5°C° 0 mm 6 mps 753 mmHg 84%
    12:00 +5°C° 0 mm 7 mps 752 mmHg 83%
    13:00 +5°C° 0 mm 7 mps 752 mmHg 83%
    14:00 +5°C° 0 mm 7 mps 751 mmHg 83%
    15:00 +5°C° 0 mm 7 mps 750 mmHg 83%
    16:00 +5°C° 0 mm 7 mps 749 mmHg 86%
    17:00 +5°C° 0 mm 7 mps 748 mmHg 89%
    18:00 +4°C° 0 mm 7 mps 748 mmHg 92%
    19:00 +4°C° 0 mm 7 mps 747 mmHg 91%
    20:00 +4°C° 0 mm 8 mps 747 mmHg 90%
    21:00 +3°C° 0 mm 9 mps 746 mmHg 90%
    22:00 +3°C° 0 mm 9 mps 746 mmHg 89%
    23:00 +3°C° 0 mm 10 mps 745 mmHg 87%

    26 January, Sunday

    Time Temperature Precipitation Wind Pressure Humidity
    00:00 +3°C° 0 mm 10 mps 744 mmHg 86%
    01:00 +3°C° 0.3 mm 10 mps 743 mmHg 88%
    02:00 +5°C° 0.3 mm 9 mps 742 mmHg 90%
    03:00 +5°C° 0.3 mm 9 mps 742 mmHg 92%
    04:00 +5°C° 0.5 mm 9 mps 741 mmHg 91%
    05:00 +5°C° 0.5 mm 9 mps 741 mmHg 90%
    06:00 +5°C° 0.5 mm 9 mps 741 mmHg 90%
    07:00 +4°C° 0.1 mm 8 mps 742 mmHg 88%
    08:00 +2°C° 0.1 mm 8 mps 742 mmHg 86%
    09:00 0°C° 0.1 mm 7 mps 743 mmHg 84%
    10:00 +1°C° 0.2 mm 8 mps 743 mmHg 81%
    11:00 +1°C° 0.2 mm 9 mps 743 mmHg 78%
    12:00 +1°C° 0.2 mm 10 mps 743 mmHg 76%
    13:00 +1°C° 0.1 mm 9 mps 744 mmHg 76%
    14:00 +1°C° 0.1 mm 9 mps 744 mmHg 77%
    15:00 +1°C° 0.1 mm 9 mps 744 mmHg 77%
    16:00 0°C° 0.1 mm 9 mps 743 mmHg 80%
    17:00 -1°C° 0.1 mm 8 mps 743 mmHg 82%
    18:00 -1°C° 0.1 mm 8 mps 743 mmHg 85%
    19:00 -1°C° 0 mm 9 mps 743 mmHg 85%
    20:00 -2°C° 0 mm 10 mps 743 mmHg 86%
    21:00 -2°C° 0 mm 11 mps 743 mmHg 86%
    22:00 -2°C° 0.1 mm 10 mps 743 mmHg 87%
    23:00 -2°C° 0.1 mm 10 mps 743 mmHg 88%

    27 January, Monday

    Time Temperature Precipitation Wind Pressure Humidity
    00:00 -1°C° 0.1 mm 9 mps 742 mmHg 89%
    01:00 -1°C° 0.1 mm 9 mps 742 mmHg 88%
    02:00 -1°C° 0.1 mm 9 mps 742 mmHg 87%
    03:00 -1°C° 0.1 mm 9 mps 742 mmHg 86%
    04:00 -3°C° 0.1 mm 9 mps 742 mmHg 86%
    05:00 -3°C° 0.1 mm 9 mps 742 mmHg 86%
    06:00 -3°C° 0.1 mm 9 mps 741 mmHg 86%
    07:00 -3°C° 0 mm 9 mps 741 mmHg 87%
    08:00 -1°C° 0 mm 9 mps 741 mmHg 88%
    09:00 -1°C° 0 mm 9 mps 740 mmHg 89%
    10:00 0°C° 0 mm 9 mps 739 mmHg 88%
    11:00 0°C° 0 mm 8 mps 738 mmHg 86%
    12:00 +1°C° 0 mm 8 mps 737 mmHg 85%
    13:00 +1°C° 0.4 mm 8 mps 734 mmHg 88%
    14:00 +2°C° 0.4 mm 7 mps 731 mmHg 90%
    15:00 +3°C° 0.4 mm 7 mps 728 mmHg 92%
    16:00 +1°C° 8.3 mm 9 mps 725 mmHg 95%
    17:00 -1°C° 8.3 mm 11 mps 721 mmHg 97%
    18:00 -2°C° 8.3 mm 13 mps 718 mmHg 99%
    19:00 -2°C° 4.1 mm 14 mps 720 mmHg 94%
    20:00 -3°C° 4.1 mm 16 mps 721 mmHg 89%
    21:00 -2°C° 4.1 mm 18 mps 723 mmHg 84%
    22:00 -3°C° 0.1 mm 16 mps 725 mmHg 83%
    23:00 -2°C° 0.1 mm 14 mps 727 mmHg 83%

    28 January, Tuesday

    Time Temperature Precipitation Wind Pressure Humidity
    00:00 -3°C° 0.1 mm 12 mps 728 mmHg 83%
    01:00 -2°C° 1.3 mm 13 mps 729 mmHg 86%
    02:00 -2°C° 1.3 mm 13 mps 729 mmHg 90%
    03:00 -1°C° 1.3 mm 14 mps 729 mmHg 93%
    04:00 -1°C° 0.5 mm 14 mps 730 mmHg 90%
    05:00 -1°C° 0.5 mm 15 mps 731 mmHg 86%
    06:00 -2°C° 0.5 mm 16 mps 731 mmHg 83%
    07:00 -1°C° 0.1 mm 15 mps 733 mmHg 83%
    08:00 -1°C° 0.1 mm 15 mps 734 mmHg 82%
    09:00 -3°C° 0.1 mm 15 mps 735 mmHg 82%
    10:00 -2°C° 0.1 mm 14 mps 736 mmHg 81%
    11:00 -2°C° 0.1 mm 14 mps 737 mmHg 80%
    12:00 -2°C° 0.1 mm 14 mps 738 mmHg 79%
    13:00 -2°C° 0.1 mm 13 mps 738 mmHg 81%
    14:00 -2°C° 0.1 mm 11 mps 738 mmHg 83%
    15:00 -2°C° 0.1 mm 10 mps 737 mmHg 85%
    16:00 -1°C° 0.6 mm 9 mps 737 mmHg 89%
    17:00 -1°C° 0.6 mm 9 mps 737 mmHg 93%
    18:00 -2°C° 0.6 mm 8 mps 737 mmHg 97%
    19:00 -2°C° 0.4 mm 8 mps 737 mmHg 93%
    20:00 -3°C° 0.4 mm 9 mps 737 mmHg 88%
    21:00 -3°C° 0.4 mm 10 mps 737 mmHg 84%
    22:00 -3°C° 0.1 mm 10 mps 737 mmHg 83%
    23:00 -3°C° 0.1 mm 10 mps 738 mmHg 82%
    Show more